Regional Weather Roundup
Issued by NWS Midland/Odessa, TX

Skip options and go directly to product.
Home | Oldest Version | Previous Version | Current Version | All | Text Only | Save Text | Print | Product List | Glossary On

Skip product version selection by date and time.   
755
ASUS44 KMAF 241710
RWRMAF
MIDLAND AREA WEATHER ROUNDUP
NATIONAL WEATHER SERVICE MIDLAND TX
1200 PM CDT THU APR 24 2014

...IN SOUTHWEST TEXAS AND SOUTHEAST NEW MEXICO...

CITY           SKY/WX    TMP DP  RH WIND       PRES   REMARKS
ALPINE         SUNNY     73  19  13 NE13G20   30.17R
ANDREWS        CLOUDY    66  34  29 N16G25    30.07R
ARTESIA        SUNNY     64  32  29 N18G24    30.09F HAZE
BIG SPRING     CLOUDY    74  35  24 NW15G23   30.05R
CARLSBAD         N/A     72  21  14 MISG      30.08R
DRYDEN           N/A     88  22   9 N17G24    29.98R
FORT STOCKTON  SUNNY     76  13   9 N16       30.05S
GUAD PASS      SUNNY     69  18  14 SW6       30.16R
HOBBS          SUNNY     64  32  29 N18       30.09F
MARFA          SUNNY     73  19  13 NW14G20   30.14S
MIDLAND AIRPK  SUNNY     70  33  25 N15G28    30.04R HAZE
MIDLAND INTL   SUNNY     70  35  27 N24G32    30.03S BLWGDUST
ODESSA         CLOUDY    70  32  24 MISG      30.04S HAZE
PECOS          SUNNY     76  23  14 NW13G22   30.05R
PRESIDIO       FAIR      85  20   9 W16       30.02S
SEMINOLE       SUNNY     65  33  29 N13G20    30.09S
SNYDER         SUNNY     69  34  27 NW16      30.02R
WINK           CLOUDY    74  28  18 N14G22    30.04R
$$
...OTHER STATIONS IN TEXAS...

CITY           SKY/WX    TMP DP  RH WIND       PRES   REMARKS
ABILENE        SUNNY     73  37  27 N23G31    29.95R
AMARILLO       SUNNY     63  29  27 N20G35    30.03R
AUSTIN         CLOUDY    74  65  73 SW9       29.88S
BROWNSVILLE    SUNNY     85  66  53 S22G30    29.83F
CORPUS CHRISTI PTSUNNY   83  67  58 S17G25    29.85S
DALLAS FTW     PTSUNNY   79  63  57 SW17      29.79R
DEL RIO        SUNNY     83  60  45 W12       29.89S
EL PASO        SUNNY     71  13  10 N13       30.09S
HOUSTON INT    CLOUDY    78  65  63 VRB7      29.88S
LUBBOCK        SUNNY     67  36  31 NW18G25   30.05R
SAN ANGELO     MOSUNNY   83  24  11 N20G28    29.94R
SAN ANTONIO    CLOUDY    73  65  75 S3        29.90R
WACO           PTSUNNY   78  65  63 S12G22    29.83S
WICHITA FALLS  NOT AVBL
$$
...OTHER LOCATIONS IN NEW MEXICO...

CITY           SKY/WX    TMP DP  RH WIND       PRES   REMARKS
ALAMAGORDO     SUNNY     72   9   8 NW13G21   30.10S
ALBUQUERQUE    PTSUNNY   57  10  15 VRB3      30.17R
CANNON AFB     SUNNY     61  26  25 N13       30.10S
CLOVIS         SUNNY     63  28  27 N15G22    30.12S
HOLLOMAN AFB   SUNNY     71  10   9 N9G20     30.10R
ROSWELL        SUNNY     66  31  27 N14       30.09F BLWGDUST
RUIDOSO        SUNNY     57   5  12 NE5G18    30.20S
SANTA FE       SUNNY     54   8  16 W5        30.14S
TRUTH OR CONSE SUNNY     64  12  13 VRB5      30.15S
TUCUMCARI      SUNNY     62  24  23 NW7       30.08F
$$

USA.gov is the U.S. government's official web portal to all federal, state and local government web resources and services.